| time (UTC) | temp F | wind direction | speed MPH | gust MPH | rain 1hr in | rain 24hr in | rain mn in | humidity % | barometer mb |
| 20260902191536 | 93 | 119 | 0.0 | 0.0 | 0.00 | 0.03 | 0.00 | 61 | 1013.8 |
| 20260902190023 | 95 | 101 | 0.0 | 0.0 | 0.00 | 0.03 | 0.00 | 58 | 1013.9 |
| 20260902184536 | 94 | 201 | 0.0 | 0.0 | 0.00 | 0.03 | 0.00 | 61 | 1014.1 |
| 20260902183025 | 93 | 179 | 0.0 | 1.0 | 0.00 | 0.03 | 0.00 | 62 | 1014.3 |
| 20260902181525 | 92 | 231 | 0.0 | 5.0 | 0.00 | 0.03 | 0.00 | 63 | 1014.5 |
| 20260902180032 | 91 | 140 | 0.0 | 0.0 | 0.00 | 0.03 | 0.00 | 68 | 1014.9 |
| 20260902174527 | 90 | 277 | 0.0 | 0.0 | 0.00 | 0.03 | 0.00 | 69 | 1014.9 |
| 20260902173026 | 90 | 210 | 0.0 | 0.0 | 0.00 | 0.03 | 0.00 | 71 | 1015.2 |
| 20260902171526 | 90 | 199 | 0.0 | 0.0 | 0.00 | 0.03 | 0.00 | 71 | 1015.3 |
| 20260902170026 | 90 | 160 | 0.0 | 0.0 | 0.00 | 0.03 | 0.00 | 72 | 1015.6 |
| 20260902164525 | 89 | 104 | 0.0 | 0.0 | 0.00 | 0.03 | 0.00 | 74 | 1015.8 |
| 20260902163025 | 88 | 111 | 0.0 | 0.0 | 0.00 | 0.03 | 0.00 | 75 | 1015.9 |
| 20260902161528 | 88 | 221 | 0.0 | 0.0 | 0.00 | 0.03 | 0.00 | 77 | 1015.9 |
| 20260902160026 | 87 | 155 | 0.0 | 0.0 | 0.00 | 0.03 | 0.00 | 78 | 1015.8 |
| 20260902154528 | 86 | 134 | 0.0 | 0.0 | 0.00 | 0.03 | 0.00 | 80 | 1015.8 |
| 20260902153025 | 86 | 158 | 0.0 | 0.0 | 0.00 | 0.03 | 0.00 | 80 | 1015.7 |
| 20260902151505 | 85 | 99 | 0.0 | 0.0 | 0.00 | 0.03 | 0.00 | 81 | 1015.5 |
| 20260902150008 | 84 | 278 | 0.0 | 0.0 | 0.00 | 0.03 | 0.00 | 81 | 1015.4 |
| 20260902144518 | 83 | 245 | 0.0 | 0.0 | 0.00 | 0.03 | 0.00 | 81 | 1015.4 |
| 20260902143024 | 82 | 148 | 0.0 | 0.0 | 0.00 | 0.03 | 0.00 | 81 | 1015.3 |
| 20260902141523 | 81 | 121 | 0.0 | 0.0 | 0.00 | 0.03 | 0.00 | 81 | 1015.2 |
| 20260902140004 | 81 | 96 | 0.0 | 0.0 | 0.00 | 0.03 | 0.00 | 81 | 1015.3 |
| 20260902134511 | 80 | 110 | 0.0 | 0.0 | 0.00 | 0.03 | 0.00 | 80 | 1015.3 |
| 20260902133017 | 79 | 110 | 0.0 | 0.0 | 0.00 | 0.03 | 0.00 | 80 | 1015.3 |
| 20260902131521 | 79 | 110 | 0.0 | 0.0 | 0.00 | 0.04 | 0.00 | 80 | 1015.0 |
| 20260902130033 | 0 | 0.0 | 0.0 | 0.00 | 0.04 | 0.00 | 1014.8 | ||
| 20260902124530 | 0 | 0.0 | 0.0 | 0.00 | 0.04 | 0.00 | 1014.7 | ||
| 20260902123037 | 0 | 0.0 | 0.0 | 0.00 | 0.04 | 0.00 | 1014.5 | ||
| 20260902121532 | 0 | 0.0 | 0.0 | 0.00 | 0.04 | 0.00 | 1014.2 | ||
| 20260902120031 | 0 | 0.0 | 0.0 | 0.00 | 0.04 | 0.00 | 1014.3 | ||
| 20260902114531 | 0 | 0.0 | 0.0 | 0.00 | 0.04 | 0.00 | 1014.3 | ||
| 20260902113031 | 0 | 0.0 | 0.0 | 0.00 | 0.04 | 0.00 | 1014.2 | ||
| 20260902111538 | 0 | 0.0 | 0.0 | 0.00 | 0.04 | 0.00 | 1013.9 | ||
| 20260902110031 | 0 | 0.0 | 0.0 | 0.00 | 0.04 | 0.00 | 1014.1 | ||
| 20260902104533 | 0 | 0.0 | 0.0 | 0.00 | 0.04 | 0.00 | 1014.0 | ||
| 20260902103033 | 0 | 0.0 | 0.0 | 0.00 | 0.04 | 0.00 | 1014.1 | ||
| 20260902101532 | 0 | 0.0 | 0.0 | 0.00 | 0.04 | 0.00 | 1013.8 | ||
| 20260902100034 | 0 | 0.0 | 0.0 | 0.00 | 0.04 | 0.00 | 1013.7 | ||
| 20260902094531 | 0 | 0.0 | 0.0 | 0.00 | 0.04 | 0.00 | 1013.8 | ||
| 20260902093034 | 0 | 0.0 | 0.0 | 0.00 | 0.04 | 0.00 | 1013.8 | ||
| 20260902091522 | 79 | 162 | 0.0 | 0.0 | 0.00 | 0.04 | 0.00 | 77 | 1013.7 |
| 20260902090028 | 79 | 108 | 0.0 | 0.0 | 0.00 | 0.04 | 0.00 | 78 | 1013.6 |
| 20260902084508 | 79 | 113 | 0.0 | 0.0 | 0.00 | 0.04 | 0.00 | 78 | 1013.6 |
| 20260902083012 | 79 | 108 | 0.0 | 0.0 | 0.00 | 0.04 | 0.00 | 78 | 1013.7 |
| 20260902081519 | 79 | 128 | 0.0 | 0.0 | 0.00 | 0.04 | 0.00 | 78 | 1013.8 |
| 20260902080025 | 79 | 119 | 0.0 | 0.0 | 0.00 | 0.04 | 0.00 | 79 | 1014.0 |
| 20260902074533 | 79 | 108 | 0.0 | 0.0 | 0.00 | 0.04 | 0.00 | 78 | 1013.8 |
| 20260902073009 | 79 | 108 | 0.0 | 0.0 | 0.00 | 0.04 | 0.00 | 79 | 1013.8 |
| 20260902071519 | 79 | 127 | 0.0 | 0.0 | 0.00 | 0.04 | 0.00 | 79 | 1013.9 |
| 20260902070024 | 80 | 108 | 0.0 | 0.0 | 0.00 | 0.04 | 0.00 | 79 | 1013.8 |
| 20260902064530 | 80 | 113 | 0.0 | 0.0 | 0.00 | 0.04 | 0.00 | 79 | 1013.8 |
| 20260902063041 | 80 | 118 | 0.0 | 0.0 | 0.00 | 0.04 | 0.00 | 79 | 1013.8 |
| 20260902061510 | 80 | 116 | 0.0 | 0.0 | 0.00 | 0.04 | 0.00 | 79 | 1013.9 |
| 20260902060016 | 80 | 115 | 0.0 | 0.0 | 0.00 | 0.04 | 0.00 | 80 | 1013.8 |
| 20260902054529 | 80 | 242 | 0.0 | 0.0 | 0.00 | 0.04 | 0.00 | 80 | 1013.7 |
| 20260902053028 | 80 | 203 | 0.0 | 0.0 | 0.00 | 0.04 | 0.00 | 81 | 1013.8 |
| 20260902051532 | 79 | 202 | 0.0 | 0.0 | 0.00 | 0.04 | 0.00 | 81 | 1014.0 |
| 20260902050046 | 79 | 202 | 0.0 | 0.0 | 0.00 | 0.04 | 0.00 | 81 | 1013.9 |
| 20260902044521 | 79 | 203 | 0.0 | 0.0 | 0.00 | 0.04 | 0.04 | 81 | 1014.0 |
| 20260902043031 | 79 | 203 | 0.0 | 0.0 | 0.00 | 0.04 | 0.04 | 82 | 1014.0 |
| 20260902041531 | 79 | 203 | 0.0 | 0.0 | 0.00 | 0.04 | 0.04 | 82 | 1013.9 |
| 20260902040035 | 79 | 203 | 0.0 | 0.0 | 0.00 | 0.04 | 0.04 | 81 | 1014.1 |
| 20260902034517 | 78 | 203 | 0.0 | 0.0 | 0.00 | 0.04 | 0.04 | 81 | 1014.1 |
| 20260902033018 | 78 | 203 | 0.0 | 0.0 | 0.00 | 0.04 | 0.04 | 81 | 1014.1 |
| 20260902031526 | 78 | 203 | 0.0 | 0.0 | 0.00 | 0.04 | 0.04 | 82 | 1013.9 |
| 20260902030031 | 79 | 203 | 0.0 | 0.0 | 0.00 | 0.04 | 0.04 | 82 | 1013.6 |
| 20260902024543 | 79 | 203 | 0.0 | 0.0 | 0.00 | 0.04 | 0.04 | 82 | 1013.3 |
| 20260902023020 | 79 | 203 | 0.0 | 0.0 | 0.00 | 0.04 | 0.04 | 82 | 1013.3 |
| 20260902021523 | 79 | 203 | 0.0 | 0.0 | 0.00 | 0.04 | 0.04 | 82 | 1013.0 |
| 20260902020028 | 79 | 202 | 0.0 | 0.0 | 0.00 | 0.04 | 0.04 | 82 | 1013.1 |
| 20260902014531 | 79 | 202 | 0.0 | 0.0 | 0.00 | 0.04 | 0.04 | 82 | 1012.8 |
| 20260902013038 | 79 | 202 | 0.0 | 0.0 | 0.00 | 0.04 | 0.04 | 82 | 1012.7 |
| 20260902011532 | 80 | 203 | 0.0 | 0.0 | 0.00 | 0.04 | 0.04 | 82 | 1012.5 |
| 20260902010029 | 80 | 203 | 0.0 | 0.0 | 0.01 | 0.04 | 0.04 | 82 | 1012.4 |
| 20260902004530 | 81 | 203 | 0.0 | 0.0 | 0.01 | 0.04 | 0.04 | 81 | 1012.6 |
| 20260902003033 | 81 | 203 | 0.0 | 0.0 | 0.01 | 0.04 | 0.04 | 80 | 1012.8 |
| 20260902001534 | 81 | 264 | 0.0 | 0.0 | 0.01 | 0.06 | 0.04 | 80 | 1012.9 |
| 20260902000025 | 82 | 356 | 0.0 | 0.0 | 0.00 | 0.05 | 0.03 | 79 | 1012.8 |
| 20260901234529 | 82 | 356 | 0.0 | 0.0 | 0.00 | 0.05 | 0.03 | 80 | 1012.9 |
| 20260901233008 | 82 | 298 | 0.0 | 0.0 | 0.00 | 0.05 | 0.03 | 79 | 1012.8 |
| 20260901231522 | 82 | 258 | 0.0 | 0.0 | 0.00 | 0.05 | 0.03 | 80 | 1013.0 |
| 20260901230019 | 82 | 283 | 0.0 | 0.0 | 0.00 | 0.05 | 0.03 | 81 | 1013.1 |
| 20260901224533 | 83 | 337 | 0.0 | 0.0 | 0.00 | 0.05 | 0.03 | 80 | 1013.1 |
| 20260901223004 | 84 | 222 | 0.0 | 0.0 | 0.00 | 0.05 | 0.03 | 80 | 1013.1 |
| 20260901221509 | 84 | 222 | 0.0 | 0.0 | 0.01 | 0.05 | 0.03 | 79 | 1012.8 |
| 20260901220015 | 83 | 250 | 0.0 | 0.0 | 0.01 | 0.05 | 0.03 | 80 | 1013.0 |
| 20260901214524 | 83 | 131 | 0.0 | 0.0 | 0.01 | 0.05 | 0.03 | 80 | 1013.2 |
| 20260901213041 | 83 | 279 | 0.0 | 0.0 | 0.01 | 0.05 | 0.03 | 81 | 1013.4 |
| 20260901211510 | 83 | 279 | 0.0 | 0.0 | 0.00 | 0.04 | 0.02 | 80 | 1013.6 |
| 20260901210013 | 83 | 279 | 0.0 | 0.0 | 0.00 | 0.04 | 0.02 | 80 | 1013.5 |
| 20260901204532 | 83 | 128 | 0.0 | 0.0 | 0.00 | 0.05 | 0.02 | 80 | 1013.4 |
| 20260901203034 | 82 | 172 | 0.0 | 0.0 | 0.00 | 0.77 | 0.02 | 81 | 1013.4 |
| 20260901201527 | 82 | 141 | 0.0 | 0.0 | 0.01 | 1.04 | 0.02 | 81 | 1013.5 |
| 20260901200011 | 82 | 255 | 0.0 | 0.0 | 0.01 | 1.04 | 0.02 | 81 | 1013.8 |
| 20260901194515 | 82 | 212 | 0.0 | 0.0 | 0.01 | 1.04 | 0.02 | 79 | 1014.2 |
| 20260901193030 | 82 | 254 | 0.0 | 0.0 | 0.01 | 1.04 | 0.02 | 79 | 1014.5 |